Miscellaneous Local Product
Issued by NWS North Platte, NE

Home | Current Version | Previous Version | Text Only | Print | Product List | Glossary On
Versions: 1 2 3 4 5 6 7 8 9 10 11 12 13 14 15 16 17 18 19 20 21 22 23 24 25 26 27 28 29 30 31 32 33 34 35 36 37 38 39 40 41 42 43 44 45 46 47 48 49 50
000
AXUS43 KLBF 271910
MISLBF


WESTERN AND NORTH CENTRAL NEBRASKA HOURLY WEATHER ROUNDUP
NATIONAL WEATHER SERVICE NORTH PLATTE NE
100 PM CST TUE JAN 27 2015

***STATIONS NOT REPORTING VARIABLES SUCH AS SKY/WEATHER OR
PRESSURE ARE PROVIDED BY THE NEBRASKA DEPARTMENT OF
ROADS...RAWS...AND APRS NETWORKS...AND ARE NOT UNDER
NATIONAL WEATHER SERVICE QUALITY CONTROL***

...OBSERVATIONS IN AND NEAR THE EASTERN PANHANDLE OF NEBRASKA...

CITY           SKY/WX    TMP DP  RH WIND       PRES   REMARKS
PINE RIDGE     SUNNY     63  30  28 W12       29.98F
CHADRON        SUNNY     62  31  31 SW8       30.00F
ALLIANCE       SUNNY     63  31  30 W10       30.02F
SIDNEY         SUNNY     70  26  19 W8        30.08F
WHITECLAY        N/A     65  30  27 CALM        N/A
CRESCENT LAKE    N/A     69  26  20 W8          N/A
LISCO            N/A     63  24  22 W6          N/A
LEWELLEN         N/A     62  32  32 NW7         N/A
$$

...OBSERVATIONS IN NORTH CENTRAL NEBRASKA...

CITY           SKY/WX    TMP DP  RH WIND       PRES   REMARKS
VALENTINE      SUNNY     65  32  29 W6        29.94F
THEDFORD       SUNNY     71  31  22 NW9G17    29.97F
AINSWORTH      SUNNY     64  31  29 W3        29.94F
O`NEILL        SUNNY     55  35  48 S15       29.97F
ORD            SUNNY     53  34  48 E7        29.98F
BROKEN BOW     SUNNY     63  36  36 CALM      29.97F
BROWNLEE         N/A     68  30  24 W10         N/A
VALENTINE NWR    N/A     63  32  31 W7          N/A
SPRINGVIEW       N/A     60  40  47 CALM        N/A
HALSEY           N/A     68  30  24 W5          N/A
BREWSTER         N/A     69  32  26 CALM        N/A
ROSE             N/A     63  40  43 CALM        N/A
NEWPORT          N/A     62  37  39 S8          N/A
SARGENT          N/A     60  37  43 CALM        N/A
COMSTOCK         N/A     66  36  32 CALM        N/A
CHAMBERS         N/A     55  36  48 S9          N/A
EWING            N/A     52  38  60 S9          N/A
$$

...OBSERVATIONS IN SOUTHWEST NEBRASKA AND FAR NORTHEAST COLORADO...

CITY           SKY/WX    TMP DP  RH WIND       PRES   REMARKS
WRAY           FAIR      74  28  18 W6        30.07F
HOLYOKE        FAIR      75  27  16 W10       30.05F
IMPERIAL       SUNNY     70  29  21 W9        30.03F
OGALLALA       SUNNY     70  31  23 W9        30.01F
NORTH PLATTE   SUNNY     61  32  33 W8        30.00F
MCCOOK         SUNNY     63  33  32 W9        30.01F
LEXINGTON      SUNNY     61  33  34 W6        29.99F
BRADY            N/A     64  35  34 SW3         N/A
GOTHENBURG       N/A     64  31  28 NW6         N/A
CALLAWAY         N/A     69  36  30 W3          N/A
$$

...NORTH PLATTE AREA...

CITY           SKY/WX    TMP DP  RH WIND       PRES   REMARKS
AIRPORT        SUNNY     61  32  33 W8        30.00F
DOWNTOWN         N/A     62  35  36 CALM        N/A
$$

...SOME WEATHER OBSERVATIONS FROM AROUND THE REGION...

CITY           SKY/WX    TMP DP  RH WIND       PRES   REMARKS
DENVER         PTSUNNY   71  20  14 SW9       30.11F
LARAMIE        SUNNY     57  21  24 SW16      30.20F
CHEYENNE       SUNNY     66  19  16 W16G23    30.13F
SCOTTSBLUFF      N/A    N/A N/A N/A MISG      30.04F
PIERRE         SUNNY     51  34  52 S3        29.91F
WINNER         FAIR      59  35  40 CALM      29.93F
SIOUX FALLS    CLOUDY    33  31  92 SE12      30.06F WCI  24
OMAHA          MOSUNNY   48  34  58 SE13      30.09F
GRAND ISLAND   SUNNY    N/A N/A N/A S12       30.01F
KANSAS CITY    MOSUNNY   51  33  50 CALM      30.13F
WICHITA        MOSUNNY   66  34  30 S16       30.07F
HAYS           SUNNY     72  32  23 W7        30.03F
LIBERAL        SUNNY     73  37  27 SW17      30.14F
GOODLAND       SUNNY     79  22  12 SW13      30.06F
$$



USA.gov is the U.S. government's official web portal to all federal, state and local government web resources and services.